loading
DOY 172 | 2024-06-20T00:05:25Z

THOR ABLESTAR DEB, 753

Orbit data source: Space-Track

THOR ABLESTAR DEB, 753 is space debris in LEO originally from a launch on Thu, 05 Dec 1963 UTC launched from the Air Force Western Test Range (AFWTR). Debris objects in space refer to the collection of defunct objects orbiting the Earth. Examples of debris include non-operational satellites, rocket bodies, and fragments generated from explosions, collisions, or faulty payload assembly.

Loading next visibility...
Loading greatness...
THOR ABLESTAR DEB details
NORAD ID753
COSPAR ID
1963-049F
Orbit
LEO
Last TLE update11 hours ago
Origin
Flag of USUSN BuWeps (US)
ManufacturerUnknown
BusUnknown
MotorUnknown
MassWet unknown, Dry mass unknown
Launch date (UTC)
1963-12-05 (61 years ago)
Launch vehicleUnknown
Launch site
Air Force Western Test Range (AFWTR)
Object type
Payload
Rocket body
Debris
Radar Cross SectionSmall (<0.1 m²)
Predictive object data (real-time)
Latitude-11.75353°
Longitude-18.05105°
Altitude1,081.014 km
Speed7.301 km/s
Apparent Right ascension02h 56m 15s
Apparent Declination-33° 20' 08"
Sunlit
Object is in daylight
Predictive observer data (real-time)
Local Sidereal Time10:59:45
Azimuth258.462° W
Elevation-42.958°
Doppler factor1
Orbital elements
Apogee1,073.509 km
Perigee1,032.806 km
Semi-major axis7,431.294 km
Eccentricity0.0027386
Inclination89.9142°
RAAN79.234°
Arg. of periapsis154.8181°
True anomaly21.23304°
Mean anomaly21.1196°
Mean motion3.38802 °/min
BSTAR0.00040148
Period106.26 mins
Definitive object data (Epoch: 2024-06-19T12:36:07.891Z)
Latitude3.85659°
Longitude161.96513°
Altitude1,039.668 km
Speed7.342 km/s
True Right ascension17h 16m 54s
True Declination3° 50' 04"
Sunlit
Object was in full shadow at TLE epoch
TLE from 11 hours ago
0 THOR ABLESTAR DEB
1 00753U 63049F   24171.52509134  .00000284  00000-0  40148-3 0  9995
2 00753  89.9142  79.2340 0027386 154.8181  21.1196 13.54399948982025
Epoch: 2024-06-19T12:36Z
No data available

THOR ABLESTAR DEB Visibility forecast

Observer location: 39.9160978°, -105.1181434, 0m alt.

THOR ABLESTAR DEB is not visible in the next 10 days
Span
Click to sort rows by Start time (UTC) header in descending order
Start Az.
Max El. time (UTC)
Max El. Az.
Max El.
End time (UTC)
End Az.